Tracking 29892 objects as of 21-Nov-2024
HD Live streaming from Space Station
objects crossing your sky now

SL-16 DEB

Track SL-16 DEB now!
10-day predictions


NORAD ID: 31796
Int'l Code: 2007-029E
Perigee: 854.4 km
Apogee: 1,168.3 km
Inclination: 71.0 °
Period: 105.2 minutes
Semi major axis: 7382 km
RCS: 0.0857 m2 (small)
Launch date: June 29, 2007
Source: Commonwealth of Independent States (former USSR) (CIS)
Launch site: TYURATAM MISSILE AND SPACE COMPLEX (TTMTR)

Note: This is SATELLITE DEBRIS
Your satellite tracking list
Your tracking list is empty




NASA's NSSDC Master Catalog

Two Line Element Set (TLE):
1 31796U 07029E   24325.23179708  .00000112  00000-0  15143-3 0  9998
2 31796  71.0457  36.4735 0212600 107.3523 286.3546 13.68707679868899
Source of the keplerian elements: AFSPC